TimeEDT,TemperatureF,Dew PointF,Humidity,Sea Level PressureIn,VisibilityMPH,Wind Direction,Wind SpeedMPH,Gust SpeedMPH,PrecipitationIn,Events,Conditions,WindDirDegrees,DateUTC
12:53 AM,39.9,30.9,70,30.42,10.0,Calm,Calm,-,N/A,,Clear,0,2012-10-13 04:53:00
1:53 AM,37.9,30.9,76,30.43,10.0,NNW,3.5,-,N/A,,Clear,330,2012-10-13 05:53:00
2:53 AM,39.9,28.9,65,30.40,10.0,Calm,Calm,-,N/A,,Clear,0,2012-10-13 06:53:00
3:53 AM,41.0,28.0,60,30.39,10.0,Calm,Calm,-,N/A,,Clear,0,2012-10-13 07:53:00
4:53 AM,57.0,27.0,32,30.35,10.0,ESE,5.8,-,N/A,,Clear,110,2012-10-13 08:53:00
5:53 AM,52.0,27.0,38,30.37,10.0,East,3.5,-,N/A,,Clear,100,2012-10-13 09:53:00
6:53 AM,54.0,28.0,37,30.39,10.0,ESE,4.6,-,N/A,,Clear,120,2012-10-13 10:53:00
7:53 AM,39.9,30.0,68,30.39,10.0,Calm,Calm,-,N/A,,Clear,0,2012-10-13 11:53:00
8:53 AM,60.1,34.0,38,30.38,10.0,SE,3.5,-,N/A,,Clear,130,2012-10-13 12:53:00
9:53 AM,73.9,36.0,25,30.37,10.0,SSE,6.9,-,N/A,,Clear,150,2012-10-13 13:53:00
10:53 AM,78.1,39.0,25,30.36,10.0,Variable,3.5,-,N/A,,Clear,0,2012-10-13 14:53:00
11:53 AM,82.0,39.9,22,30.32,10.0,WSW,6.9,-,N/A,,Clear,240,2012-10-13 15:53:00
12:53 PM,82.0,42.1,24,30.29,10.0,Variable,3.5,-,N/A,,Clear,0,2012-10-13 16:53:00
1:53 PM,84.9,42.1,22,30.27,10.0,South,8.1,-,N/A,,Clear,180,2012-10-13 17:53:00
2:53 PM,-9999,-9999,N/A,30.25,10.0,Variable,5.8,-,N/A,,Clear,0,2012-10-13 18:53:00
4:53 PM,70.0,41.0,35,30.19,10.0,SSE,4.6,-,N/A,,Clear,160,2012-10-13 20:53:00
5:53 PM,68.0,41.0,37,30.19,10.0,Calm,Calm,-,N/A,,Clear,0,2012-10-13 21:53:00
6:53 PM,63.0,44.1,50,30.18,10.0,SSE,4.6,-,N/A,,Clear,160,2012-10-13 22:53:00
8:53 PM,61.0,43.0,52,30.16,10.0,South,3.5,-,N/A,,Partly Cloudy,170,2012-10-14 00:53:00
10:53 PM,63.0,43.0,48,30.13,10.0,South,4.6,-,N/A,,Clear,180,2012-10-14 02:53:00
11:53 PM,63.0,43.0,48,30.11,10.0,SSW,5.8,-,N/A,,Clear,200,2012-10-14 03:53:00